Time,TemperatureF,DewpointF,PressureIn,WindDirection,WindDirectionDegrees,WindSpeedMPH,WindSpeedGustMPH,Humidity,HourlyPrecipIn,Conditions,Clouds,dailyrainin,SoftwareType,DateUTC
2013-03-03 00:11:00,26.0,-99.9,30.13,WNW,301,17.0,24.0,-999,-99.99,,,-99.99,,2013-03-03 06:11:00,
2013-03-03 00:22:00,26.0,-99.9,30.13,WNW,301,17.0,24.0,-999,-99.99,,,-99.99,,2013-03-03 06:22:00,
2013-03-03 00:32:00,26.0,-99.9,30.13,WNW,301,17.0,24.0,-999,-99.99,,,-99.99,,2013-03-03 06:32:00,
2013-03-03 00:42:00,26.0,-99.9,30.13,WNW,301,17.0,24.0,-999,-99.99,,,-99.99,,2013-03-03 06:42:00,
2013-03-03 01:11:00,25.0,-99.9,30.13,NNW,328,15.0,19.0,-999,-99.99,,,-99.99,,2013-03-03 07:11:00,
2013-03-03 01:22:00,25.0,-99.9,30.76,NW,319,12.0,24.0,-999,-99.99,,,-99.99,,2013-03-03 07:22:00,
2013-03-03 01:32:00,25.0,-99.9,30.14,NW,319,12.0,24.0,-999,-99.99,,,-99.99,,2013-03-03 07:32:00,
2013-03-03 01:42:00,25.0,-99.9,30.76,NW,319,12.0,24.0,-999,-99.99,,,-99.99,,2013-03-03 07:42:00,
2013-03-03 01:50:00,25.0,-99.9,30.13,NW,315,17.0,21.0,-999,-99.99,,,-99.99,,2013-03-03 07:50:00,
2013-03-03 01:52:00,25.0,-99.9,30.14,NW,319,12.0,24.0,-999,-99.99,,,-99.99,,2013-03-03 07:52:00,
2013-03-03 02:01:00,25.0,-99.9,30.14,NW,319,12.0,24.0,-999,-99.99,,,-99.99,,2013-03-03 08:01:00,
2013-03-03 02:11:00,25.0,-99.9,30.13,NW,315,17.0,21.0,-999,-99.99,,,-99.99,,2013-03-03 08:11:00,
2013-03-03 02:21:00,25.0,-99.9,30.13,NW,315,17.0,21.0,-999,-99.99,,,-99.99,,2013-03-03 08:21:00,
2013-03-03 02:32:00,25.0,-99.9,30.13,NW,315,17.0,21.0,-999,-99.99,,,-99.99,,2013-03-03 08:32:00,
2013-03-03 02:42:00,25.0,-99.9,30.13,NW,315,17.0,21.0,-999,-99.99,,,-99.99,,2013-03-03 08:42:00,
2013-03-03 02:50:00,25.0,-99.9,30.11,NW,321,14.0,17.0,-999,-99.99,,,-99.99,,2013-03-03 08:50:00,
2013-03-03 03:12:00,25.0,-99.9,30.11,NW,321,14.0,17.0,-999,-99.99,,,-99.99,,2013-03-03 09:12:00,
2013-03-03 03:22:00,25.0,-99.9,30.11,NW,321,14.0,17.0,-999,-99.99,,,-99.99,,2013-03-03 09:22:00,
2013-03-03 03:32:00,25.0,-99.9,30.11,NW,321,14.0,17.0,-999,-99.99,,,-99.99,,2013-03-03 09:32:00,
2013-03-03 03:42:00,25.0,-99.9,30.11,NW,321,14.0,17.0,-999,-99.99,,,-99.99,,2013-03-03 09:42:00,
2013-03-03 03:50:00,25.0,-99.9,30.10,NW,309,15.0,20.0,-999,-99.99,,,-99.99,,2013-03-03 09:50:00,
2013-03-03 04:12:00,25.0,-99.9,30.10,NW,309,15.0,20.0,-999,-99.99,,,-99.99,,2013-03-03 10:12:00,
2013-03-03 04:22:00,25.0,-99.9,30.10,NW,309,15.0,20.0,-999,-99.99,,,-99.99,,2013-03-03 10:22:00,
2013-03-03 04:32:00,25.0,-99.9,30.10,NW,309,15.0,20.0,-999,-99.99,,,-99.99,,2013-03-03 10:32:00,
2013-03-03 04:42:00,25.0,-99.9,30.10,NW,309,15.0,20.0,-999,-99.99,,,-99.99,,2013-03-03 10:42:00,
2013-03-03 04:50:00,26.0,-99.9,30.10,NW,322,14.0,19.0,-999,-99.99,,,-99.99,,2013-03-03 10:50:00,
2013-03-03 05:11:00,26.0,-99.9,30.10,NW,322,14.0,19.0,-999,-99.99,,,-99.99,,2013-03-03 11:11:00,
2013-03-03 05:22:00,26.0,-99.9,30.10,NW,322,14.0,19.0,-999,-99.99,,,-99.99,,2013-03-03 11:22:00,
2013-03-03 05:32:00,26.0,-99.9,30.10,NW,322,14.0,19.0,-999,-99.99,,,-99.99,,2013-03-03 11:32:00,
2013-03-03 05:42:00,26.0,-99.9,30.10,NW,322,14.0,19.0,-999,-99.99,,,-99.99,,2013-03-03 11:42:00,
2013-03-03 05:50:00,27.0,-99.9,30.12,NW,326,15.0,21.0,-999,-99.99,,,-99.99,,2013-03-03 11:50:00,
2013-03-03 06:11:00,27.0,-99.9,30.12,NW,326,15.0,21.0,-999,-99.99,,,-99.99,,2013-03-03 12:11:00,
2013-03-03 06:22:00,27.0,-99.9,30.12,NW,326,15.0,21.0,-999,-99.99,,,-99.99,,2013-03-03 12:22:00,
2013-03-03 06:32:00,27.0,-99.9,30.12,NW,326,15.0,21.0,-999,-99.99,,,-99.99,,2013-03-03 12:32:00,
2013-03-03 06:43:00,27.0,-99.9,30.12,NW,326,15.0,21.0,-999,-99.99,,,-99.99,,2013-03-03 12:43:00,
2013-03-03 07:11:00,27.0,-99.9,30.12,NW,325,15.0,22.0,-999,-99.99,,,-99.99,,2013-03-03 13:11:00,
2013-03-03 07:22:00,27.0,-99.9,30.12,NW,325,15.0,22.0,-999,-99.99,,,-99.99,,2013-03-03 13:22:00,
2013-03-03 07:32:00,27.0,-99.9,30.12,NNW,328,15.0,23.0,-999,-99.99,,,-99.99,,2013-03-03 13:32:00,
2013-03-03 07:42:00,27.0,-99.9,30.74,NNW,328,15.0,23.0,-999,-99.99,,,-99.99,,2013-03-03 13:42:00,
2013-03-03 07:52:00,27.0,-99.9,30.12,NNW,328,15.0,23.0,-999,-99.99,,,-99.99,,2013-03-03 13:52:00,
2013-03-03 08:02:00,27.0,-99.9,30.12,NNW,328,15.0,23.0,-999,-99.99,,,-99.99,,2013-03-03 14:02:00,
2013-03-03 08:11:00,27.0,-99.9,30.13,NW,326,16.0,22.0,-999,-99.99,,,-99.99,,2013-03-03 14:11:00,
2013-03-03 08:22:00,27.0,-99.9,30.13,NW,326,16.0,22.0,-999,-99.99,,,-99.99,,2013-03-03 14:22:00,
2013-03-03 08:32:00,27.0,-99.9,30.13,NW,325,13.0,24.0,-999,-99.99,,,-99.99,,2013-03-03 14:32:00,
2013-03-03 08:42:00,27.0,-99.9,30.13,NW,325,13.0,24.0,-999,-99.99,,,-99.99,,2013-03-03 14:42:00,
2013-03-03 08:52:00,27.0,-99.9,30.13,NW,325,13.0,24.0,-999,-99.99,,,-99.99,,2013-03-03 14:52:00,
2013-03-03 09:02:00,27.0,-99.9,30.13,NW,325,13.0,24.0,-999,-99.99,,,-99.99,,2013-03-03 15:02:00,
2013-03-03 09:11:00,27.0,-99.9,30.76,NNW,333,13.0,18.0,-999,-99.99,,,-99.99,,2013-03-03 15:11:00,
2013-03-03 09:22:00,27.0,-99.9,30.76,NNW,330,14.0,21.0,-999,-99.99,,,-99.99,,2013-03-03 15:22:00,
2013-03-03 09:33:00,27.0,-99.9,30.14,NNW,330,14.0,21.0,-999,-99.99,,,-99.99,,2013-03-03 15:33:00,
2013-03-03 09:42:00,27.0,-99.9,30.14,NNW,330,14.0,21.0,-999,-99.99,,,-99.99,,2013-03-03 15:42:00,
2013-03-03 09:50:00,27.0,-99.9,30.14,NW,322,13.0,18.0,-999,-99.99,,,-99.99,,2013-03-03 15:50:00,
2013-03-03 09:52:00,27.0,-99.9,30.76,NNW,330,14.0,21.0,-999,-99.99,,,-99.99,,2013-03-03 15:52:00,
2013-03-03 10:02:00,27.0,-99.9,30.14,NNW,330,14.0,21.0,-999,-99.99,,,-99.99,,2013-03-03 16:02:00,
2013-03-03 10:12:00,27.0,-99.9,30.14,NW,322,13.0,18.0,-999,-99.99,,,-99.99,,2013-03-03 16:12:00,
2013-03-03 10:22:00,27.0,-99.9,30.14,NW,322,13.0,18.0,-999,-99.99,,,-99.99,,2013-03-03 16:22:00,
2013-03-03 10:32:00,27.0,-99.9,30.14,NW,322,13.0,18.0,-999,-99.99,,,-99.99,,2013-03-03 16:32:00,
2013-03-03 10:42:00,27.0,-99.9,30.14,NW,322,13.0,18.0,-999,-99.99,,,-99.99,,2013-03-03 16:42:00,
2013-03-03 10:50:00,27.0,-99.9,30.13,NW,319,11.0,15.0,-999,-99.99,,,-99.99,,2013-03-03 16:50:00,
2013-03-03 11:12:00,27.0,-99.9,30.13,NW,319,11.0,15.0,-999,-99.99,,,-99.99,,2013-03-03 17:12:00,
2013-03-03 11:22:00,27.0,-99.9,30.13,NW,319,11.0,15.0,-999,-99.99,,,-99.99,,2013-03-03 17:22:00,
2013-03-03 11:32:00,27.0,-99.9,30.13,NW,319,11.0,15.0,-999,-99.99,,,-99.99,,2013-03-03 17:32:00,
2013-03-03 11:42:00,27.0,-99.9,30.13,NW,319,11.0,15.0,-999,-99.99,,,-99.99,,2013-03-03 17:42:00,
2013-03-03 11:50:00,27.0,-99.9,30.13,NNW,327,10.0,13.0,-999,-99.99,,,-99.99,,2013-03-03 17:50:00,
2013-03-03 12:11:00,27.0,-99.9,30.13,NNW,327,10.0,13.0,-999,-99.99,,,-99.99,,2013-03-03 18:11:00,
2013-03-03 12:22:00,27.0,-99.9,30.13,NNW,327,10.0,13.0,-999,-99.99,,,-99.99,,2013-03-03 18:22:00,
2013-03-03 12:32:00,27.0,-99.9,30.13,NNW,327,10.0,13.0,-999,-99.99,,,-99.99,,2013-03-03 18:32:00,
2013-03-03 12:42:00,27.0,-99.9,30.13,NNW,327,10.0,13.0,-999,-99.99,,,-99.99,,2013-03-03 18:42:00,
2013-03-03 12:50:00,27.0,-99.9,30.11,NW,324,8.0,10.0,-999,-99.99,,,-99.99,,2013-03-03 18:50:00,
2013-03-03 13:11:00,27.0,-99.9,30.73,NW,324,8.0,10.0,-999,-99.99,,,-99.99,,2013-03-03 19:11:00,
2013-03-03 13:22:00,27.0,-99.9,30.11,NW,324,8.0,10.0,-999,-99.99,,,-99.99,,2013-03-03 19:22:00,
2013-03-03 13:32:00,27.0,-99.9,30.11,NW,324,8.0,10.0,-999,-99.99,,,-99.99,,2013-03-03 19:32:00,
2013-03-03 13:42:00,27.0,-99.9,30.11,NW,324,8.0,10.0,-999,-99.99,,,-99.99,,2013-03-03 19:42:00,
2013-03-03 13:50:00,27.0,-99.9,30.10,North,354,10.0,13.0,-999,-99.99,,,-99.99,,2013-03-03 19:50:00,
2013-03-03 14:12:00,27.0,-99.9,30.10,North,354,10.0,13.0,-999,-99.99,,,-99.99,,2013-03-03 20:12:00,
2013-03-03 14:22:00,27.0,-99.9,30.10,North,354,10.0,13.0,-999,-99.99,,,-99.99,,2013-03-03 20:22:00,
2013-03-03 14:32:00,27.0,-99.9,30.10,North,354,10.0,13.0,-999,-99.99,,,-99.99,,2013-03-03 20:32:00,
2013-03-03 14:43:00,27.0,-99.9,30.10,North,354,10.0,13.0,-999,-99.99,,,-99.99,,2013-03-03 20:43:00,
2013-03-03 14:50:00,27.0,-99.9,30.10,North,9,10.0,13.0,-999,-99.99,,,-99.99,,2013-03-03 20:50:00,
2013-03-03 15:12:00,27.0,-99.9,30.10,North,9,10.0,13.0,-999,-99.99,,,-99.99,,2013-03-03 21:12:00,
2013-03-03 15:22:00,27.0,-99.9,30.10,North,9,10.0,13.0,-999,-99.99,,,-99.99,,2013-03-03 21:22:00,
2013-03-03 15:32:00,27.0,-99.9,30.10,North,9,10.0,13.0,-999,-99.99,,,-99.99,,2013-03-03 21:32:00,
2013-03-03 15:42:00,27.0,-99.9,30.10,North,9,10.0,13.0,-999,-99.99,,,-99.99,,2013-03-03 21:42:00,
2013-03-03 15:50:00,27.0,-99.9,30.10,NNE,12,8.0,10.0,-999,-99.99,,,-99.99,,2013-03-03 21:50:00,
2013-03-03 16:11:00,27.0,-99.9,30.10,NNE,12,8.0,10.0,-999,-99.99,,,-99.99,,2013-03-03 22:11:00,
2013-03-03 16:22:00,27.0,-99.9,30.10,NNE,12,8.0,10.0,-999,-99.99,,,-99.99,,2013-03-03 22:22:00,
2013-03-03 16:32:00,27.0,-99.9,30.10,NNE,12,8.0,10.0,-999,-99.99,,,-99.99,,2013-03-03 22:32:00,
2013-03-03 16:42:00,27.0,-99.9,30.10,NNE,12,8.0,10.0,-999,-99.99,,,-99.99,,2013-03-03 22:42:00,
2013-03-03 16:50:00,27.0,-99.9,30.10,NNE,19,8.0,10.0,-999,-99.99,,,-99.99,,2013-03-03 22:50:00,
2013-03-03 17:11:00,27.0,-99.9,30.10,NNE,19,8.0,10.0,-999,-99.99,,,-99.99,,2013-03-03 23:11:00,
2013-03-03 17:22:00,27.0,-99.9,30.10,NNE,19,8.0,10.0,-999,-99.99,,,-99.99,,2013-03-03 23:22:00,
2013-03-03 17:32:00,27.0,-99.9,30.10,NNE,19,8.0,10.0,-999,-99.99,,,-99.99,,2013-03-03 23:32:00,
2013-03-03 17:42:00,27.0,-99.9,30.10,NNE,19,8.0,10.0,-999,-99.99,,,-99.99,,2013-03-03 23:42:00,
2013-03-03 17:50:00,27.0,-99.9,30.11,NNE,24,9.0,12.0,-999,-99.99,,,-99.99,,2013-03-03 23:50:00,
2013-03-03 18:11:00,27.0,-99.9,30.11,NNE,24,9.0,12.0,-999,-99.99,,,-99.99,,2013-03-04 00:11:00,
2013-03-03 18:22:00,27.0,-99.9,30.11,NNE,24,9.0,12.0,-999,-99.99,,,-99.99,,2013-03-04 00:22:00,
2013-03-03 18:32:00,27.0,-99.9,30.11,NNE,24,9.0,12.0,-999,-99.99,,,-99.99,,2013-03-04 00:32:00,
2013-03-03 18:42:00,27.0,-99.9,30.11,NNE,24,9.0,12.0,-999,-99.99,,,-99.99,,2013-03-04 00:42:00,
2013-03-03 18:50:00,26.0,-99.9,30.11,NNE,26,9.0,11.0,-999,-99.99,,,-99.99,,2013-03-04 00:50:00,
2013-03-03 19:12:00,26.0,-99.9,30.11,NNE,26,9.0,11.0,-999,-99.99,,,-99.99,,2013-03-04 01:12:00,
2013-03-03 19:22:00,26.0,-99.9,30.11,NNE,26,9.0,11.0,-999,-99.99,,,-99.99,,2013-03-04 01:22:00,
2013-03-03 19:32:00,26.0,-99.9,30.11,NNE,26,9.0,11.0,-999,-99.99,,,-99.99,,2013-03-04 01:32:00,
2013-03-03 19:42:00,26.0,-99.9,30.11,NNE,26,9.0,11.0,-999,-99.99,,,-99.99,,2013-03-04 01:42:00,
2013-03-03 19:50:00,26.0,-99.9,30.12,NE,39,8.0,11.0,-999,-99.99,,,-99.99,,2013-03-04 01:50:00,
2013-03-03 20:11:00,26.0,-99.9,30.12,NE,39,8.0,11.0,-999,-99.99,,,-99.99,,2013-03-04 02:11:00,
2013-03-03 20:22:00,26.0,-99.9,30.12,NE,39,8.0,11.0,-999,-99.99,,,-99.99,,2013-03-04 02:22:00,
2013-03-03 20:32:00,26.0,-99.9,30.12,NE,39,8.0,11.0,-999,-99.99,,,-99.99,,2013-03-04 02:32:00,
2013-03-03 20:42:00,26.0,-99.9,30.12,NE,39,8.0,11.0,-999,-99.99,,,-99.99,,2013-03-04 02:42:00,
2013-03-03 20:50:00,26.0,-99.9,30.12,NE,36,7.0,10.0,-999,-99.99,,,-99.99,,2013-03-04 02:50:00,
2013-03-03 21:11:00,26.0,-99.9,30.12,NE,36,7.0,10.0,-999,-99.99,,,-99.99,,2013-03-04 03:11:00,
2013-03-03 21:22:00,26.0,-99.9,30.12,NE,36,7.0,10.0,-999,-99.99,,,-99.99,,2013-03-04 03:22:00,
2013-03-03 21:32:00,26.0,-99.9,30.12,NE,36,7.0,10.0,-999,-99.99,,,-99.99,,2013-03-04 03:32:00,
2013-03-03 21:42:00,26.0,-99.9,30.12,NE,36,7.0,10.0,-999,-99.99,,,-99.99,,2013-03-04 03:42:00,
2013-03-03 21:50:00,26.0,-99.9,30.12,NNE,26,6.0,8.0,-999,-99.99,,,-99.99,,2013-03-04 03:50:00,
2013-03-03 22:11:00,26.0,-99.9,30.12,NNE,26,6.0,8.0,-999,-99.99,,,-99.99,,2013-03-04 04:11:00,
2013-03-03 22:22:00,26.0,-99.9,30.12,NNE,26,6.0,8.0,-999,-99.99,,,-99.99,,2013-03-04 04:22:00,
2013-03-03 22:32:00,26.0,-99.9,30.12,NNE,26,6.0,8.0,-999,-99.99,,,-99.99,,2013-03-04 04:32:00,
2013-03-03 22:42:00,26.0,-99.9,30.12,NNE,26,6.0,8.0,-999,-99.99,,,-99.99,,2013-03-04 04:42:00,
2013-03-03 22:50:00,27.0,-99.9,30.13,North,9,6.0,8.0,-999,-99.99,,,-99.99,,2013-03-04 04:50:00,
2013-03-03 23:11:00,27.0,-99.9,30.13,North,9,6.0,8.0,-999,-99.99,,,-99.99,,2013-03-04 05:11:00,
2013-03-03 23:22:00,27.0,-99.9,30.13,North,9,6.0,8.0,-999,-99.99,,,-99.99,,2013-03-04 05:22:00,
2013-03-03 23:32:00,27.0,-99.9,30.13,North,9,6.0,8.0,-999,-99.99,,,-99.99,,2013-03-04 05:32:00,
2013-03-03 23:43:00,27.0,-99.9,30.13,North,9,6.0,8.0,-999,-99.99,,,-99.99,,2013-03-04 05:43:00,
2013-03-03 23:50:00,27.0,-99.9,30.12,NNE,20,6.0,9.0,-999,-99.99,,,-99.99,,2013-03-04 05:50:00,